Regional Weather Roundup
Issued by NWS

Home | Current Version | Previous Version | Text Only | Print | Product List | Glossary Off
Versions: 1 2 3 4 5 6 7 8 9 10 11 12 13 14 15 16 17 18 19 20 21 22 23 24 25 26 27 28 29 30 31 32 33 34 35 36 37 38 39 40 41 42 43 44 45 46 47 48 49 50

000
ASUS43 KBIS 272110
RWRND

NORTH DAKOTA REGIONAL WEATHER ROUNDUP
NATIONAL WEATHER SERVICE BISMARCK ND
400 PM CDT WED AUG 27 2014

NOTE: "FAIR" INDICATES FEW OR NO CLOUDS BELOW 12,000 FEET WITH NO
SIGNIFICANT WEATHER AND/OR OBSTRUCTIONS TO VISIBILITY.


NDZ001>003-009>011-017-272200-
NORTHWEST NORTH DAKOTA

CITY           SKY/WX    TMP DP  RH WIND       PRES   REMARKS
WILLISTON      SUNNY     83  51  33 S10       30.00F
MINOT          SUNNY     77  54  44 S13G20    30.04F
MINOT AFB      SUNNY     77  53  44 S9        30.03F
$$

NDZ018>021-031>035-040>046-272200-
SOUTHWEST NORTH DAKOTA

CITY           SKY/WX    TMP DP  RH WIND       PRES   REMARKS
BISMARCK       MOSUNNY   77  59  53 SE6       30.09F
DICKINSON      MOSUNNY   77  55  46 S8        30.06F
GARRISON         N/A     76  58  53 S10       30.07F
HETTINGER ARPT SUNNY     76  56  49 SE8       30.08F
$$

NDZ004>008-012>016-024-026-027-054-272200-
NORTHEAST NORTH DAKOTA

CITY           SKY/WX    TMP DP  RH WIND       PRES   REMARKS
GRAND FORKS    MOSUNNY   73  55  53 S10       30.11F
GRND FRKS AFB  MOSUNNY   73  58  59 SW8       30.12F
DEVILS LAKE    MOSUNNY   73  55  53 S7        30.09F
$$

NDZ022-023-025-028>030-036>039-047>053-272200-
SOUTHEAST NORTH DAKOTA

CITY           SKY/WX    TMP DP  RH WIND       PRES   REMARKS
FARGO          CLOUDY    73  58  59 SE10      30.13F
JAMESTOWN      MOSUNNY   74  59  59 S12       30.11F
$$



USA.gov is the U.S. government's official web portal to all federal, state and local government web resources and services.